User: anonymous   Login
Location: Fort Wayne
(41.1310°N, 85.1290°W)
Time: 22:03:27
(UTC-04:00)
Language:

Cosmos 2056 Rocket - Orbit

View from above orbital plane
View from above orbital plane
View from above satellite
View from above satellite

Ground track
Ground track

The orbit data is extracted from the following two-line orbital elements,

1 20433U 90004B   15116.87579001  .00000220  00000-0  84152-4 0  9994
2 20433 074.0375 352.1727 0041695 311.1174 129.5950 14.35827126322917
Epoch (UTC): 26 April 2015 21:01:08
Eccentricity: 0.0041695
inclination: 74.0375°
perigee height: 742 km
apogee height: 802 km
right ascension of ascending node: 352.1727°
argument of perigee: 311.1174°
revolutions per day: 14.35827126
mean anomaly at epoch: 129.5950°
orbit number at epoch: 32291

The dashed part of the orbit path shows where the satellite is in the earth's shadow,  

DLR